Probability
0 0 0 0 0 0 0 0 0 1 1 1 1 1 2 2 1 0 0 0 0 0 0 0 9 40 58 35 10 12 15 7 0 0 0 0 0 0 0 0 0 0 0
0 0 0 0 0 0 0 0 0 0 0 0 0 0 1 1 0 0 0 0 0 0 0 0 4 27 57 55 28 21 24 14 4 0 0 0 0 0 0 0 0 0 0
0 0 0 0 0 0 0 0 0 0 0 0 0 0 0 0 0 0 0 0 0 0 0 0 0 13 48 72 63 45 37 28 15 6 1 0 0 0 0 0 0 0 0
0 0 0 0 0 0 0 0 0 0 0 0 0 0 0 0 0 0 0 0 0 0 0 0 0 5 32 72 87 76 56 37 25 16 13 10 5 1 0 0 0 0 0
0 0 0 0 0 0 0 0 0 0 0 0 0 0 0 0 0 0 0 0 0 0 0 1 1 1 18 57 89 94 78 54 35 27 29 33 25 13 5 1 0 0 0
0 0 0 0 0 0 0 0 0 0 0 0 0 0 0 0 0 0 0 0 0 0 1 3 8 14 21 45 80 98 94 81 62 47 44 51 55 46 30 16 7 2 1
0 0 0 0 0 0 0 0 0 0 0 0 0 0 0 0 0 0 0 0 0 0 1 5 17 38 48 55 79 97 100 97 89 77 67 66 75 78 69 52 34 17 8
0 0 0 0 0 0 0 0 0 0 0 0 0 0 0 0 0 0 0 0 0 0 1 6 22 49 70 81 86 92 96 100 99 96 90 85 87 92 92 86 70 45 26
0 0 0 0 0 0 0 0 0 0 0 0 0 0 0 0 0 0 0 0 0 0 1 7 22 46 73 91 91 80 80 90 98 100 99 97 96 95 97 98 90 71 53
0 0 0 0 0 0 0 0 0 0 0 0 0 0 0 0 0 0 0 0 0 0 0 6 20 41 63 81 84 65 47 63 88 99 100 100 99 99 98 98 96 88 81
0 0 0 0 0 0 0 0 0 0 0 0 0 0 0 0 0 0 0 0 0 0 0 3 12 27 42 55 59 40 18 27 64 90 99 100 100 100 99 99 99 98 97
0 0 0 0 0 0 0 0 0 0 0 0 0 0 0 0 0 0 0 0 0 0 0 1 4 10 17 24 23 14 4 7 31 67 90 98 100 100 100 100 100 100 100
0 0 0 0 0 0 0 0 0 0 0 0 0 0 0 0 0 0 0 0 0 0 0 0 0 1 3 5 3 1 0 0 9 31 58 73 85 95 100 100 100 100 99
0 0 0 0 0 0 0 0 0 0 0 0 0 0 0 0 0 0 0 0 0 0 0 0 0 0 0 0 0 1 2 1 1 7 18 29 48 75 92 95 90 80 75
0 0 0 0 0 0 0 0 0 0 0 0 0 0 0 0 0 0 0 0 0 0 0 0 0 0 0 1 0 6 11 6 0 0 0 3 15 38 61 66 55 39 29
0 0 0 0 0 0 0 0 0 0 0 0 0 0 0 0 0 0 0 0 0 0 0 0 0 0 1 1 1 10 18 10 1 0 0 0 2 10 19 22 16 7 2
0 0 0 0 0 0 0 0 0 0 0 0 0 0 0 0 0 0 0 0 0 0 0 0 0 0 1 0 2 9 13 10 3 0 0 0 0 1 1 0 0 0 0
0 0 0 0 0 0 0 0 0 0 0 0 0 0 0 0 0 0 0 0 0 0 0 0 0 0 1 1 2 4 6 6 3 0 0 0 0 0 0 0 0 0 0
0 0 0 0 0 0 0 0 0 0 0 0 0 0 0 0 0 0 0 0 0 0 0 0 0 0 1 2 2 2 3 3 1 0 0 0 0 0 0 0 0 0 0
0 0 0 0 0 0 0 0 0 0 0 0 0 0 0 0 0 0 0 0 0 0 0 0 0 0 1 3 4 3 2 1 0 0 0 0 0 0 0 0 0 0 0
0 0 0 0 0 0 0 0 0 0 0 0 0 0 0 0 0 0 0 0 0 0 0 0 0 0 0 2 4 4 2 1 0 0 0 0 0 0 0 0 0 0 0
0 0 0 0 0 0 0 0 0 0 0 0 0 0 0 0 0 0 0 0 0 0 0 0 0 0 0 1 2 2 2 1 0 0 0 0 0 0 0 0 0 0 0
0 0 0 0 0 0 0 0 0 0 0 0 0 0 0 0 0 0 0 0 0 0 0 0 0 0 0 0 0 1 1 0 0 0 0 0 0 0 0 0 0 0 0
0 0 0 0 0 0 0 0 0 0 0 0 0 0 0 0 0 0 0 0 0 0 0 0 0 0 0 0 0 0 0 0 0 0 0 0 0 0 0 0 0 0 0
0 0 0 0 0 0 0 0 0 0 0 0 0 0 0 0 0 0 0 0 0 0 0 0 0 0 0 0 0 0 0 0 0 0 0 0 0 0 0 0 0 0 0
0 0 0 0 0 0 0 0 0 0 0 0 0 0 0 0 0 0 0 0 0 0 0 0 0 0 0 0 0 0 0 0 0 0 0 0 0 0 0 0 0 0 0
Wind_Speed
13 13 11 11 12 12 12 12 10 11 11 11 11 12 12 12 11 9 6 9 11 12 13 14 15 15 14 17 19 19 17 17 16 15 13 12 11 9 9 9 9 9 9
13 13 13 12 12 12 13 13 14 12 10 10 11 12 13 13 12 11 9 8 12 14 14 14 15 16 16 16 19 20 19 18 18 16 15 14 12 11 11 10 10 10 10
16 15 12 12 12 13 14 13 15 12 11 11 12 13 12 13 13 12 11 8 8 12 15 15 15 16 17 17 18 20 20 19 18 17 15 15 14 14 13 12 11 11 11
19 16 13 12 13 13 11 11 12 12 12 11 11 10 10 10 14 14 12 10 9 8 11 15 16 17 18 18 19 20 21 21 20 19 18 16 15 16 15 14 13 12 12
18 15 13 13 15 12 11 11 12 12 13 12 12 11 11 11 12 12 14 13 12 11 10 10 15 16 17 19 20 21 21 22 21 21 19 18 17 17 16 15 14 13 13
17 15 12 15 15 12 12 12 14 13 12 12 13 13 12 12 11 11 13 12 12 13 12 12 10 12 17 18 19 20 20 20 21 22 20 20 20 19 17 16 15 15 14
17 15 12 13 13 13 15 16 14 15 12 11 12 12 13 15 15 12 12 12 13 13 12 12 10 9 9 16 17 18 20 19 20 21 20 21 22 21 19 18 17 16 15
17 13 14 13 14 13 15 15 15 12 12 11 9 10 10 11 13 12 12 12 13 11 12 12 12 11 10 8 10 16 17 19 19 18 19 21 23 23 22 19 18 17 16
17 16 15 14 14 13 12 15 14 15 13 13 10 8 7 8 9 9 12 11 12 11 11 11 13 12 12 9 9 13 15 16 19 20 18 19 22 25 25 22 20 19 18
17 17 16 16 14 13 14 14 13 12 13 12 12 10 10 9 8 8 7 8 10 10 11 9 10 11 11 9 9 8 13 16 20 22 21 19 22 25 26 25 23 21 18
16 18 17 16 16 13 15 15 15 14 11 12 11 12 13 11 12 8 10 9 7 7 8 9 9 9 10 9 8 10 11 15 19 21 20 20 22 24 27 27 26 23 20
14 18 19 17 17 15 16 16 15 16 13 14 12 11 11 10 9 9 10 12 12 9 8 6 7 8 8 8 10 9 10 13 17 18 17 18 19 21 24 26 25 23 22
14 18 18 17 16 17 17 17 16 16 15 15 14 12 12 12 12 12 11 11 13 12 10 8 8 7 7 8 8 11 12 14 16 16 15 16 17 18 20 23 24 24 24
15 19 19 18 18 19 18 17 14 16 14 14 15 15 12 12 11 12 11 10 11 11 12 13 8 8 7 7 8 11 11 15 15 15 16 17 17 18 19 21 21 21 22
16 19 19 18 18 18 18 18 13 16 15 15 14 15 14 12 11 12 12 10 10 10 12 13 10 9 7 7 7 10 9 11 11 11 12 14 16 17 16 18 19 19 19
19 20 20 19 18 17 17 16 15 15 16 15 13 14 14 11 11 10 11 11 10 10 10 8 8 8 9 7 9 9 8 12 11 12 12 13 15 19 22 24 24 23 21
19 19 20 19 19 18 17 16 16 17 16 15 15 13 12 11 8 8 8 9 10 9 9 8 6 7 10 10 8 8 9 9 9 14 16 17 19 22 24 25 25 24 22
18 18 19 19 19 19 18 18 17 16 15 15 15 14 10 7 7 6 7 9 9 9 8 9 7 8 9 11 10 9 8 7 9 15 18 18 19 21 23 23 23 22 20
19 18 18 18 18 18 19 19 16 16 14 15 15 14 12 10 9 7 8 8 8 8 7 6 8 7 6 8 10 8 8 7 10 13 18 19 20 20 21 23 23 22 19
18 18 18 18 18 18 18 20 13 13 14 14 14 14 13 12 11 8 6 7 7 7 7 6 8 7 7 9 10 10 9 7 8 10 11 13 17 18 18 20 21 20 19
18 18 18 18 18 16 17 22 9 9 12 14 14 13 13 17 20 11 4 5 5 3 3 3 5 5 6 9 9 9 11 10 8 8 10 10 12 11 11 15 16 17 18
17 17 17 18 18 15 27 31 17 10 10 12 13 13 12 14 18 22 23 21 16 6 2 1 2 5 4 4 5 8 12 12 8 6 9 8 8 9 9 9 13 16 16
17 17 17 18 18 20 30 31 23 12 11 11 12 11 10 12 15 12 18 23 24 27 21 8 7 5 5 5 2 6 7 11 8 5 9 7 6 8 6 9 16 16 17
15 15 16 18 17 20 29 32 23 11 10 11 12 11 12 14 15 15 14 15 16 19 20 14 12 12 10 8 6 5 9 11 9 6 4 6 5 6 8 9 15 17 18
14 14 14 16 17 18 26 31 17 9 9 12 13 13 14 15 23 23 17 16 16 15 19 26 27 26 28 27 16 6 5 8 6 5 5 5 5 6 6 7 10 17 18
14 14 14 15 15 16 23 27 20 10 10 10 10 12 21 22 25 24 16 15 15 14 14 16 19 21 19 22 25 15 8 4 6 5 4 3 5 6 6 4 5 6 10
Wind_Direction
344 342 337 337 334 335 331 324 314 307 294 279 267 260 258 256 256 251 233 201 228 242 247 248 248 250 247 234 223 215 208 210 212 208 202 199 196 193 189 184 179 177 177
342 338 334 333 333 334 329 319 314 306 293 284 274 263 257 256 255 253 250 221 215 237 247 246 244 245 245 239 226 218 212 209 211 211 206 200 196 193 188 184 179 178 178
344 339 332 330 335 330 324 320 316 309 299 288 278 272 266 259 256 252 248 249 236 222 233 243 240 240 242 238 227 217 217 212 209 208 206 200 195 193 191 189 184 182 182
348 338 333 333 335 328 324 323 318 314 307 296 283 274 270 264 260 256 250 242 244 242 227 226 233 234 237 238 230 219 219 217 209 205 204 200 195 195 194 192 189 188 188
345 340 333 335 334 330 329 327 323 316 308 302 291 277 266 263 261 257 252 245 240 237 241 220 217 230 232 236 236 227 223 219 215 209 204 201 198 198 198 196 193 193 194
343 339 335 336 336 332 333 330 324 318 309 304 295 280 266 258 256 256 255 248 239 234 233 238 227 222 223 230 236 233 225 219 214 217 211 204 201 200 201 199 196 196 196
339 338 336 334 334 331 328 327 329 321 316 314 302 285 263 250 246 246 247 247 239 234 232 231 233 234 217 216 227 229 222 217 210 212 216 212 205 200 200 199 197 197 196
335 335 335 332 332 328 328 330 330 322 317 321 316 305 277 258 242 239 240 237 238 233 231 229 229 229 233 221 207 211 217 217 213 211 212 215 211 203 200 198 197 197 196
330 330 330 331 328 328 325 325 323 320 317 312 300 293 293 279 280 246 236 238 234 231 228 228 227 228 229 229 217 198 202 213 218 220 217 215 213 208 202 196 194 195 195
330 327 327 328 325 324 320 317 315 309 306 303 304 286 288 305 299 282 246 228 233 234 229 222 226 225 225 225 225 220 200 210 219 222 221 217 215 214 206 197 192 192 191
333 327 328 328 326 323 319 313 308 302 296 291 289 291 291 287 273 274 271 262 238 229 231 221 218 221 223 224 225 224 210 215 222 222 221 219 217 215 210 199 193 189 188
331 329 329 328 325 321 318 312 306 300 291 284 280 277 276 275 276 274 268 262 260 247 223 217 217 214 217 221 225 225 218 222 228 227 222 220 218 216 210 200 192 187 183
328 327 327 324 321 318 315 310 309 304 294 284 277 273 268 266 273 275 276 270 263 258 239 221 223 217 212 218 221 212 219 223 226 225 223 220 217 214 207 197 189 185 178
324 323 324 320 319 317 316 311 311 312 302 291 278 272 268 266 265 265 264 268 263 253 245 237 220 219 215 217 221 202 217 212 213 216 219 217 212 205 201 190 180 176 166
323 324 322 322 320 318 317 315 311 316 313 301 284 269 262 261 258 258 255 251 256 255 245 240 227 215 207 211 200 204 204 182 183 189 195 199 199 193 180 157 148 146 140
325 324 325 325 321 320 322 317 314 316 318 310 296 273 260 257 254 251 248 243 238 249 259 258 236 213 196 195 194 197 172 144 142 139 134 133 136 137 134 131 129 130 131
326 327 327 326 325 326 328 320 316 322 324 320 314 294 268 263 262 261 254 243 233 229 242 260 251 214 195 184 177 173 153 148 138 132 126 120 119 120 122 124 128 131 133
329 329 329 327 328 330 329 324 318 329 331 330 329 325 313 301 298 300 289 264 243 228 228 244 231 208 197 181 166 158 148 139 137 135 128 123 122 124 127 129 132 134 136
332 333 333 330 329 330 327 326 319 332 336 335 337 339 339 338 325 310 306 289 260 236 221 230 235 208 183 166 156 146 135 133 138 137 132 131 131 132 134 136 137 137 137
335 335 334 333 331 330 327 326 325 337 342 341 342 345 348 351 339 310 300 299 273 236 222 221 221 198 173 164 161 149 136 131 133 140 134 133 134 134 137 139 139 138 137
337 336 337 336 336 334 330 333 333 347 348 346 348 349 351 3 0 4 358 328 299 260 228 208 193 175 162 164 165 161 142 125 116 132 133 139 140 137 135 138 140 140 139
336 337 337 337 339 338 335 343 352 352 353 353 353 354 355 7 10 18 34 37 31 19 347 306 148 120 98 118 143 151 145 143 130 112 111 108 132 137 144 148 140 138 137
334 335 335 337 339 337 338 344 350 351 359 2 359 1 10 13 23 22 32 37 32 34 38 42 59 59 58 18 91 152 167 147 118 117 121 99 90 93 93 107 124 128 128
330 329 332 336 338 339 340 342 344 355 6 8 6 15 26 24 29 31 36 42 39 34 36 39 46 50 56 41 25 60 96 98 90 50 77 106 92 72 59 79 98 108 112
328 327 331 335 340 341 343 344 5 10 11 10 15 31 40 38 36 36 34 37 37 29 30 41 45 44 43 45 40 55 100 126 106 57 28 98 116 91 62 46 71 95 100
328 328 329 334 341 344 347 352 16 12 14 9 14 35 45 46 40 40 37 36 36 28 26 30 36 36 38 38 39 36 30 73 101 89 29 81 120 118 98 49 37 58 83